Weather History for MKJP - December, 2012

Change the Weather History Date:

Thursday, December 6, 2012

  Actual Average Record
Temperature  
Mean Temperature 80 °F -  
Max Temperature 87 °F 84 °F 90 °F (2013)
Min Temperature 74 °F 75 °F 71 °F (1996)
Cooling Degree Days 16    
Growing Degree Days 30 (Base 50)    
Moisture  
Dew Point 72 °F    
Average Humidity 75    
Maximum Humidity 89    
Minimum Humidity 56    
Precipitation  
Precipitation 0.08 in - - ()
Sea Level Pressure  
Sea Level Pressure 29.86 in    
Wind  
Wind Speed 8 mph ()    
Max Wind Speed 22 mph    
Max Gust Speed -    
Visibility 7.5 miles    
Events Rain    
Averages and records for this station are not official NWS values.
T = Trace of Precipitation, MM = Missing Value Source: Averaged Metar Reports

Daily Weather History Graph

Daily Weather History Graph

Search for Another Location

Airport or City:

Trip Planner

Search our weather history database for the weather conditions in past years. The results will help you decide how hot, cold, wet, or windy it might be!

Date:

Astronomy

Dec. 06, 2012 Rise Set
Actual Time 6:25 AM EST 5:31 PM EST
Civil Twilight 6:01 AM EST 5:54 PM EST
Nautical Twilight 5:34 AM EST 6:21 PM EST
Astronomical Twilight 5:08 AM EST 6:48 PM EST
Moon No Moon Rise 12:04 PM EST (12/6)
Length of Visible Light 11h 53m
Length of Day
11h 05m
Waning Gibbous, 49% of the Moon is Illuminated
Dec 6
Waning Gibbous
Dec 13
New
Dec 20
First Quarter
Dec 28
Full
Jan 4
Last Quarter

Hourly Weather History & Observations

Time (EST) Temp. Heat Index Dew Point Humidity Pressure Visibility Wind Dir Wind Speed Gust Speed Precip Events Conditions
12:00 AM 78.8 °F - 71.6 °F 78% 29.89 in 6.2 mi NNW 5.8 mph - N/A   Mostly Cloudy
1:00 AM 79 °F - 71 °F 69% 29.89 in 12 mi North 4.6 mph - -   Mostly Cloudy
1:00 AM 78.8 °F - 71.6 °F 78% 29.89 in 6.2 mi North 4.6 mph - N/A   Mostly Cloudy
2:00 AM 77.0 °F - 73.4 °F 89% 29.89 in 6.2 mi South 11.5 mph - N/A Rain Light Rain Showers
3:00 AM 75.2 °F - 71.6 °F 89% 29.86 in 6.2 mi ESE 13.8 mph - N/A   Mostly Cloudy
4:00 AM 76 °F - 71 °F 80% 29.88 in 7 mi ENE 9.2 mph - - Rain Light Rain Showers
4:00 AM 75.2 °F - 71.6 °F 89% 29.86 in 6.2 mi ENE 9.2 mph - N/A Rain Light Rain Showers
5:00 AM 77.0 °F - 71.6 °F 83% 29.86 in 6.2 mi NNW 8.1 mph - N/A   Mostly Cloudy
6:00 AM 75.2 °F - 71.6 °F 89% 29.86 in 6.2 mi NNW 10.4 mph - N/A   Mostly Cloudy
7:00 AM 76 °F - 71 °F 81% 29.89 in 12 mi North 9.2 mph - -   Haze
7:00 AM 77.0 °F - 71.6 °F 83% 29.89 in 6.2 mi North 9.2 mph - N/A   Mostly Cloudy
8:00 AM 78.8 °F - 71.6 °F 78% 29.89 in 6.2 mi NNW 6.9 mph - N/A   Mostly Cloudy
9:00 AM 80.6 °F 84.6 °F 71.6 °F 74% 29.92 in 6.2 mi North 8.1 mph - N/A   Mostly Cloudy
10:00 AM - - - %  in 19 mi NW 4.6 mph - -  
10:00 AM 82.4 °F 88.2 °F 73.4 °F 74% 29.92 in 6.2 mi NW 4.6 mph - N/A   Mostly Cloudy
11:00 AM 84.2 °F 89.6 °F 71.6 °F 66% 29.89 in 6.2 mi WSW 5.8 mph - N/A   Scattered Clouds
12:00 PM 86.0 °F 93.4 °F 73.4 °F 66% 29.89 in 6.2 mi South 8.1 mph - N/A   Scattered Clouds
1:00 PM 87.8 °F 93.8 °F 71.6 °F 58% 29.83 in 6.2 mi SSE 11.5 mph - N/A   Mostly Cloudy
2:00 PM 86.0 °F 95.1 °F 75.2 °F 70% 29.83 in 6.2 mi SSE 13.8 mph - N/A   Scattered Clouds
3:00 PM 84.2 °F 90.9 °F 73.4 °F 70% 29.80 in 6.2 mi SE 21.9 mph - N/A   Scattered Clouds
4:00 PM 85 °F - 72 °F 56% 29.82 in 11 mi SE 20.7 mph - -   Haze
4:00 PM 86.0 °F 91.8 °F 71.6 °F 62% 29.80 in 6.2 mi SE 9.2 mph - N/A   Mostly Cloudy
5:00 PM 82.4 °F 87.2 °F 71.6 °F 70% 29.83 in 6.2 mi ESE 16.1 mph - N/A   Mostly Cloudy
6:00 PM 82.4 °F 87.2 °F 71.6 °F 70% 29.83 in 6.2 mi SE 16.1 mph - N/A   Scattered Clouds
7:00 PM 82 °F - 72 °F 66% 29.86 in 12 mi East 8.1 mph - -   Haze
7:00 PM 82.4 °F 88.2 °F 73.4 °F 74% 29.86 in 6.2 mi East 8.1 mph - N/A   Mostly Cloudy
8:00 PM 80.6 °F 85.4 °F 73.4 °F 79% 29.86 in 6.2 mi North 10.4 mph - N/A   Mostly Cloudy
9:00 PM 78.8 °F - 71.6 °F 78% 29.86 in 6.2 mi NNE 9.2 mph - N/A   Scattered Clouds
10:00 PM 80 °F - 71 °F 66% 29.88 in 12 mi North 6.9 mph - -   Haze
10:00 PM 80.6 °F 84.6 °F 71.6 °F 74% 29.86 in 6.2 mi North 6.9 mph - N/A   Scattered Clouds
11:00 PM 78.8 °F - 71.6 °F 78% 29.86 in 6.2 mi NNE 8.1 mph - N/A   Mostly Cloudy